Weather History for Jerome, ID

Change the Weather History Date:

Thursday, October 18, 2012

  Actual Average Record
Temperature  
Mean Temperature 46 °F 48 °F  
Max Temperature 61 °F 60 °F 86 °F (2003)
Min Temperature 30 °F 37 °F 19 °F (1996)
Degree Days  
Heating Degree Days 19 17  
Month to date heating degree days 230 245  
Since 1 July heating degree days 273 448  
Cooling Degree Days 0 0  
Month to date cooling degree days 0 0  
Year to date cooling degree days 750 509  
Moisture  
Dew Point 24 °F    
Average Humidity 46    
Maximum Humidity 72    
Minimum Humidity 19    
Precipitation  
Precipitation 0.00 in 0.03 in 0.32 in (2004)
Month to date precipitation 0.12 0.43  
Year to date precipitation 7.25 7.72  
Sea Level Pressure  
Sea Level Pressure 30.27 in    
Wind  
Wind Speed 6 mph (SE)    
Max Wind Speed 15 mph    
Max Gust Speed 21 mph    
Visibility 10 miles    
Events      
T = Trace of Precipitation, MM = Missing Value Source: NWS Daily Summary

Daily Weather History Graph

Daily Weather History Graph

Search for Another Location

Airport:

Trip Planner

Search our weather history database for the weather conditions in past years. The results will help you decide how hot, cold, wet, or windy it might be!

Date:

Astronomy

Oct. 18, 2012 Rise Set
Actual Time 7:55 AM MDT 6:49 PM MDT
Civil Twilight 7:26 AM MDT 7:18 PM MDT
Nautical Twilight 6:53 AM MDT 7:51 PM MDT
Astronomical Twilight 6:21 AM MDT 8:23 PM MDT
Moon 11:46 AM MDT (10/18) 9:23 PM MDT (10/18)
Length of Visible Light 11h 51m
Length of Day
10h 54m
Waxing Crescent, 15% of the Moon is Illuminated
Oct 18
Waxing Crescent
Oct 21
First Quarter
Oct 29
Full
Nov 6
Last Quarter
Nov 13
New

Hourly Weather History & Observations

Time (MDT) Temp. Windchill Dew Point Humidity Pressure Visibility Wind Dir Wind Speed Gust Speed Precip Events Conditions
12:53 AM 39.0 °F 33.4 °F 27.0 °F 62% 30.27 in 10.0 mi SW 8.1 mph - N/A   Clear
1:53 AM 37.9 °F 34.4 °F 27.0 °F 65% 30.29 in 10.0 mi SW 4.6 mph - N/A   Clear
2:53 AM 37.9 °F 33.5 °F 27.0 °F 65% 30.30 in 10.0 mi SW 5.8 mph - N/A   Clear
3:53 AM 37.0 °F 33.3 °F 27.0 °F 67% 30.30 in 10.0 mi SSW 4.6 mph - N/A   Clear
4:53 AM 37.0 °F - 26.1 °F 65% 30.30 in 10.0 mi Calm Calm - N/A   Clear
5:53 AM 33.1 °F 28.7 °F 24.1 °F 70% 30.31 in 10.0 mi ESE 4.6 mph - N/A   Clear
6:53 AM 32.0 °F 25.6 °F 24.1 °F 73% 30.33 in 10.0 mi East 6.9 mph - N/A   Clear
7:53 AM 32.0 °F 26.4 °F 24.1 °F 73% 30.35 in 10.0 mi ESE 5.8 mph - N/A   Clear
8:53 AM 37.9 °F 35.5 °F 25.0 °F 60% 30.35 in 10.0 mi SE 3.5 mph - N/A   Clear
9:53 AM 44.1 °F - 25.0 °F 47% 30.35 in 10.0 mi Calm Calm - N/A   Clear
10:53 AM 46.0 °F - 25.0 °F 44% 30.35 in 10.0 mi Calm Calm - N/A   Clear
11:53 AM 48.9 °F - 27.0 °F 43% 30.34 in 10.0 mi Variable 3.5 mph - N/A   Clear
12:53 PM 52.0 °F - 26.1 °F 37% 30.32 in 10.0 mi WNW 3.5 mph - N/A   Clear
1:53 PM 55.0 °F - 24.1 °F 30% 30.30 in 10.0 mi SW 5.8 mph - N/A   Clear
2:53 PM 57.0 °F - 21.9 °F 26% 30.27 in 10.0 mi SSW 3.5 mph - N/A   Clear
3:53 PM 59.0 °F - 21.9 °F 24% 30.24 in 10.0 mi NW 4.6 mph - N/A   Clear
4:53 PM 59.0 °F - 17.1 °F 20% 30.22 in 10.0 mi Calm Calm - N/A   Clear
5:53 PM 60.1 °F - 19.9 °F 21% 30.21 in 10.0 mi Calm Calm - N/A   Clear
6:53 PM 46.9 °F - 25.0 °F 42% 30.21 in 10.0 mi NE 5.8 mph - N/A   Clear
7:53 PM 46.9 °F - 21.0 °F 36% 30.20 in 10.0 mi ENE 10.4 mph - N/A   Clear
9:53 PM 46.9 °F - 21.9 °F 37% 30.16 in 10.0 mi NE 11.5 mph - N/A   Clear
10:53 PM 48.9 °F - 19.0 °F 31% 30.14 in 10.0 mi ENE 10.4 mph - N/A   Clear
11:53 PM 48.9 °F - 19.9 °F 32% 30.12 in 10.0 mi NE 15.0 mph - N/A   Clear